Other Surface Observations
Issued by NWS Tucson, AZ

Home | Current Version | Previous Version | Text Only | Print | Product List | Glossary On
Versions: 1 2 3 4 5 6 7 8 9 10 11 12 13 14 15 16 17 18 19 20 21 22 23 24 25 26 27 28 29 30 31 32 33 34 35 36 37 38 39 40 41 42 43 44 45 46 47 48 49 50
000
SXUS55 KTWC 261815
OSOTWC

WEATHER ROUNDUP FOR SOUTHEAST ARIZONA
NATIONAL WEATHER SERVICE TUCSON AZ
1115 AM MST MON SEP 26 2016

AZZ504>506-514-261915-
LOCATION       SKY/WX    TMP DP  RH WIND       PRES   REMARKS
TUCSON         CLOUDY    75  47  36 SE25      30.17S
DAVIS-MONTHAN  CLOUDY    73  49  43 SE17      30.16S
CHILDRENS PARK N/A      N/A N/A  32 SE14              PIMA CO DEQ
ALVERNON/22ND  N/A       74 N/A N/A E10               PIMA CO DEQ
CHERRY/GLENN   N/A       75 N/A N/A E13               PIMA CO DEQ
TANGERINE      N/A       71 N/A N/A NE7               PIMA CO DEQ
CONTL RANCH    N/A       76  48  37 E6                PIMA CO DEQ
GRANT/1ST      N/A       74  45  35 E12               PIMA CO DEQ
CRAYCROFT/22ND N/A       72  49  45 E11               PIMA CO DEQ
GOLFLINKS/KOLB N/A       71  50  47 E9                PIMA CO DEQ
AJO/12TH       N/A       74  49  42 SE9               PIMA CO DEQ
FAIRGROUNDS    N/A       72 N/A N/A E18               PIMA CO DEQ
SAGUARO        N/A       73  46  38 E10G22            *SABINO CYN
SAN CARLOS     N/A       77  46  33 SE8G12            *SAN CARLOS
GREEN VALLEY   N/A       68  47  47 SE13              PIMA CO DEQ
HORSE CAMP CYN N/A       66  47  51 SE9G13            *ARAVAIPA CYN
RINCON MTNS    NOT AVBL
$$

AZZ509>511-261915-
LOCATION       SKY/WX    TMP DP  RH WIND       PRES   REMARKS
SAFFORD        CLOUDY    72  51  47 SE7       30.22F
STRAY HORSE    N/A       59  36  42 E6G16             *
TRAIL CABIN    N/A       64  40  41 E8G15             *N OF GRANVILLE
BLACK HILLS    NOT AVBL
DRY LAKE       N/A       58  34  41 E5G14             *NATANES MTNS
NOON CREEK     N/A       66  46  48 SW2               *PINALENO MTNS
COLUMBINE      N/A       43  39  86 E4G13             *PINALENO MTNS
GUTHRIE        N/A       58  43  58 NE11G22           *SW OF GUTHRIE
$$

AZZ502-503-513-261915-
LOCATION       SKY/WX    TMP DP  RH WIND       PRES   REMARKS
NOGALES        CLOUDY    62  52  69 NE8G24    30.20F
SELLS          N/A       75  47  37 E12G21            *
SASABE         N/A       65  47  53 E16G24            *ALTAR VLY
HOPKINS        N/A       46  44  92 E50G74            *SANTA RITA MTNS
CARR CYN       N/A       52  48  85 S4G16             *W OF HEREFORD
$$

AZZ507-508-512-261915-
LOCATION       SKY/WX    TMP DP  RH WIND       PRES   REMARKS
SIERRA VISTA   LGT RAIN  54  51  91 SE16      30.30F
DOUGLAS        RAIN      57  51  80 E10       30.28F
EMPIRE MTNS    NOT AVBL
MULESHOE RANCH N/A       65  43  44 E10G22            *PRESERVE
HEADQUARTERS   NOT AVBL
$$

.............................NOTES.............................
THIS IS AN AUTOMATED COLLECTIVE WITH MINIMAL QUALITY CONTROL.
PIMA CO DEQ SITES HAVE NONSTANDARD WIND SENSOR HEIGHTS.
PIMA CO DEQ SITES DO NOT REPORT WIND GUSTS.
* INDICATES WIND SENSORS LOCATED AT 20 FEET INSTEAD OF 33 FEET.
..............................KEY..............................
SKY/WX - SKY CONDITION/WEATHER
TMP    - TEMPERATURE IN FAHRENHEIT
DP     - DEWPOINT IN FAHRENHEIT
RH     - RELATIVE HUMIDITY IN PERCENT
WIND   - DIRECTION AND SPEED IN MILES PER HOUR (MPH)
VRB    - VARIABLE WIND DIRECTION
PRES   - MEAN SEA LEVEL PRESSURE IN INCHES OF MERCURY
         F - FALLING PRESSURE   R - RISING PRESSURE
         S - STEADY PRESSURE
VSB    - VISIBILITY IN MILES
HX     - HEAT INDEX IN FAHRENHEIT
WCI    - WIND CHILL INDEX IN FAHRENHEIT
N/A    - NOT AVAILABLE
AFB    - AIR FORCE BASE
         DAVIS-MONTHAN IS DAVIS-MONTHAN AIR FORCE BASE
CYN    - CANYON
MTNS   - MOUNTAINS
NCA    - NATIONAL CONSERVATION AREA
NR     - NEAR
VLY    - VALLEY
CONTL  - CONTINENTAL
PIMA CO DEQ - PIMA COUNTY DEPT OF ENVIRONMENTAL QUALITY



USA.gov is the U.S. government's official web portal to all federal, state and local government web resources and services.